COSMOS 2357

Satellite information

Favourite Embed

Satellite Type and Status

PAYLOADIN ORBIT

Key statistics

Satellite COSMOS 2357 at a glance.

Uptime

9884

Days in orbit

Revolutions

≈ 12.2

Per day

Orbit

LEO

Low Earth Orbit

Inclination

82.6

Latest

Satellite identification and parameters

Extended collection of information and parameters for COSMOS 2357.

Object identification

Identified? True

Debris? False

Object name: COSMOS 2357

International designator: 1998-036F

Object number (NORAD): 25368

Object ID (CCSDS): 25368

Country: COMMONWEALTH OF INDEPENDENT STATES (CIS)

Current information (Y/N): Y

RCS size: MEDIUM

Orbital parameters

Period: 117.707 minutes

Inclination: 82.5864 deg

SMA: 7956.006 km

Apoapsis: 1861.826 km

Periapsis: 1293.916 km

RAAN: 166.3081 deg

Eccentricy: 0.0356907

Argument of periapsis: 139.0283 deg

Mean anomaly: 223.8198 deg

Mean motion: 12.23376441 rev/day

Mean motion (dot): 0.00000031 rev/day2

B* drag term: 0.00014351 1/REarth

Two-line elements (TLE)

Creation date: July 6, 2025, 6:05 p.m.

Reference frame: TEME

Reference center: EARTH

Epoch: July 6, 2025, 10:54 a.m. UTC

TLE line 0: 0 COSMOS 2357

TLE line 1: 1 25368U 98036F 25187.45428606 .00000031 00000-0 14351-3 0 9999

TLE line 2: 2 25368 82.5864 166.3081 0356907 139.0283 223.8198 12.23376441208365

Live tracking on map

Real-time ground track for satellite COSMOS 2357.

In-orbit conjunctions

A list of the most updated potential collisions computed for object COSMOS 2357.

Target Orbit TCA Probability of collision Miss distance Type
OPS 4682 DEB SSO 2025-04-29 19:17:04 0.001398058 222.0 (m) DEBRIS

Associated space launch

Second generation store-dump military communications satellites

COSMOS 2357 was lifted into orbit during the mission ‘Tsiklon-3 | Strela-3 119 to 124’, on board a Tsiklon-3 space rocket.

The launch took place on June 15, 1998, 10:58 p.m. from 32/1.

For more information about the launch, click the button.

Launch to space Tsiklon-3 | Strela-3 119 to 124
Tsiklon-3 | Strela-3 119 to 124

Agency: N/A

Status: Launch Successful

Launch date: June 15, 1998, 10:58 p.m. UTC

Rocket: Tsiklon-3

Launch pad: 32/1

Location: Plesetsk Cosmodrome, Russian Federation

...

Latest news about this satellite

There are no fresh news available about this satellite. Check back as we update our databases every day.


Newsletter sign-up

Weekly statistics, charts and insights to help you stay on top of the space industry.